EHI
0 0 0 0 0 0 0 0 0 0 0 1 2 2 1 2 3 2 1 0 0 0 0 0 0 1 3 5 5 4 4 3 3 3 2 2 1 0 0 0 0 0 0 0
0 0 0 0 0 0 0 0 0 0 0 0 1 1 1 1 3 3 1 0 0 0 0 0 0 0 2 3 4 4 4 4 3 2 1 1 0 0 0 0 0 0 0 0
0 0 0 0 0 0 0 0 0 0 0 1 2 2 2 2 2 2 1 0 0 0 0 0 0 0 0 1 1 3 4 4 3 1 0 0 0 0 0 0 0 0 0 0
0 0 0 0 0 0 0 0 0 0 1 3 2 2 3 3 2 1 1 0 0 0 0 0 0 0 0 0 0 1 2 3 2 1 0 0 0 0 0 0 0 0 0 0
0 0 0 0 0 0 0 0 0 1 2 2 2 3 5 4 2 1 0 0 0 0 0 0 0 0 0 0 0 0 0 1 1 0 0 0 0 0 0 0 0 0 0 0
0 0 0 0 0 0 0 0 0 1 1 1 1 3 4 4 3 1 1 0 0 0 0 0 0 0 0 0 0 0 0 0 0 0 0 0 0 0 0 0 0 0 0 0
0 0 0 0 0 0 0 0 0 0 0 0 0 1 2 3 2 2 2 1 1 0 0 0 0 0 0 0 0 0 0 0 0 0 0 0 0 0 0 0 0 0 0 0
0 0 0 0 0 0 0 0 0 0 0 0 0 0 1 1 1 2 3 3 2 1 0 0 0 0 0 0 0 0 0 0 0 0 0 0 0 0 0 0 0 0 0 0
0 0 0 0 0 0 0 0 0 0 0 0 0 0 0 0 0 1 2 3 2 1 0 0 0 0 0 0 0 0 0 0 0 0 0 0 0 0 0 0 0 0 0 0
0 0 0 0 0 0 0 0 0 0 0 0 0 0 0 0 0 0 1 1 1 0 0 0 0 0 0 0 0 0 0 0 0 0 0 0 0 0 0 0 0 0 0 0
0 0 0 0 0 0 0 0 0 0 0 0 0 0 0 0 0 0 0 0 0 0 0 0 0 0 0 0 0 0 0 0 0 0 0 0 0 0 0 0 0 0 0 0
0 0 0 0 0 0 0 0 0 0 0 0 0 0 0 0 0 0 0 0 0 0 0 0 0 0 0 0 0 0 0 0 0 0 0 0 0 0 0 0 0 0 0 0
0 0 0 0 0 0 0 0 0 0 0 0 0 0 0 0 0 0 0 0 0 0 0 0 0 0 0 0 0 0 0 0 0 0 0 0 0 0 0 0 0 0 0 0
0 0 0 0 0 0 0 0 1 1 1 1 1 1 0 0 0 0 0 0 0 0 0 0 0 0 0 0 0 0 0 0 0 0 0 0 0 0 0 0 0 0 0 0
0 0 0 0 0 0 0 0 1 2 2 2 2 2 1 1 0 0 0 0 0 0 0 0 0 0 0 0 0 0 0 0 0 0 0 0 0 0 0 0 0 0 0 0
0 0 0 0 0 0 0 0 1 1 1 1 1 2 2 1 0 0 0 0 0 0 0 0 0 0 0 0 0 0 0 0 0 0 0 0 0 0 0 0 0 0 0 0
0 0 0 0 0 0 0 0 0 0 0 0 0 1 1 1 0 0 0 0 0 0 0 0 0 0 0 0 0 0 0 0 0 0 0 0 0 0 0 0 0 0 0 0
0 0 0 0 0 0 0 0 0 0 0 0 0 0 0 0 0 0 0 0 0 0 0 0 0 0 0 0 0 0 0 0 0 0 0 0 0 0 0 0 0 0 0 0
0 0 0 0 0 0 0 0 0 0 0 0 0 1 0 0 0 0 0 0 0 0 0 0 0 0 0 0 0 0 0 0 0 0 0 0 0 0 0 0 0 0 0 0
0 0 0 0 0 0 0 1 1 0 0 1 1 1 0 0 0 0 0 0 0 0 0 0 0 0 0 0 0 0 0 0 0 0 0 0 0 0 0 0 0 0 0 0
0 0 0 0 0 0 1 2 2 1 1 1 1 1 1 1 1 1 1 0 0 0 0 0 0 0 0 0 0 0 0 0 0 0 0 0 0 0 0 0 0 0 0 0
0 0 0 0 0 0 1 2 3 2 2 1 1 1 2 2 2 2 1 0 0 0 0 0 0 0 0 0 0 0 0 0 0 0 0 0 0 0 0 0 0 0 0 0
0 0 0 0 0 1 1 1 2 2 1 0 0 1 1 1 1 1 1 0 0 0 0 0 0 0 0 0 0 0 0 0 0 0 0 1 1 1 0 0 0 0 0 0
0 0 0 0 0 1 1 1 1 1 0 0 0 0 0 0 0 0 0 0 0 0 0 0 0 0 0 0 0 0 0 0 0 0 0 1 2 1 0 0 0 0 0 0
0 0 0 0 0 1 1 0 0 0 0 0 0 0 0 0 0 0 0 0 0 0 0 0 0 0 0 0 0 0 0 0 0 0 0 1 1 1 0 0 0 0 0 0
0 0 0 0 0 0 0 0 0 0 0 0 0 0 0 0 0 0 0 0 0 0 0 0 0 0 0 0 0 0 0 0 0 0 0 0 0 0 0 0 0 0 0 0
0 0 0 0 0 0 0 0 0 0 0 0 0 0 0 0 0 0 0 0 0 0 0 0 0 0 0 0 0 0 0 0 0 0 0 0 0 0 0 0 0 0 0 0
Wind_Speed
5 4 1 3 4 3 2 5 6 6 6 7 6 5 5 6 6 6 6 5 5 4 3 3 3 3 3 4 4 5 4 4 4 3 3 3 2 2 2 3 3 3 2 2
3 3 2 3 4 4 3 2 3 3 4 5 3 3 4 5 7 7 7 6 6 5 4 4 4 3 3 3 3 4 4 3 3 2 2 2 2 2 2 2 2 2 2 3
3 4 2 3 3 1 1 2 2 3 4 0 2 3 4 5 6 6 6 6 6 5 4 4 4 4 4 3 3 4 4 3 3 3 2 2 3 2 2 3 2 2 3 3
1 1 3 5 1 1 3 3 2 2 1 2 3 3 3 4 4 4 4 5 5 5 4 3 3 2 3 3 3 3 3 3 3 3 3 2 2 2 3 2 2 3 3 3
2 2 3 3 3 1 1 2 4 3 3 3 2 4 3 1 3 3 4 4 4 5 4 3 3 3 2 2 2 3 3 3 3 3 3 3 3 3 2 2 2 3 3 3
2 2 3 3 5 4 2 0 2 3 3 1 4 2 2 2 2 2 3 4 4 4 3 3 2 3 3 2 3 3 3 4 3 3 4 4 4 3 2 2 3 3 3 3
2 2 3 4 6 3 2 4 2 2 3 2 1 3 4 2 2 3 4 4 5 5 4 3 3 3 3 2 3 4 3 3 3 3 4 4 3 3 2 2 2 2 3 4
2 1 4 4 3 1 4 2 1 1 2 3 2 1 0 1 2 3 3 3 4 4 3 2 3 3 3 3 3 2 2 2 3 3 3 3 3 3 2 2 3 3 3 3
2 3 4 2 1 2 2 1 1 1 0 2 2 1 1 1 2 3 4 3 3 3 3 2 2 3 3 3 3 2 2 2 3 3 3 3 3 3 2 3 3 3 3 3
1 1 3 3 2 2 0 1 0 1 1 2 2 2 2 2 2 2 2 3 2 3 3 3 3 3 3 3 3 3 3 2 2 3 3 3 3 3 3 3 3 3 3 4
1 2 3 4 3 2 2 2 2 0 1 2 3 3 3 2 2 2 2 2 3 4 4 4 3 2 2 2 2 2 3 3 3 3 3 4 4 4 5 5 6 5 5 4
2 4 2 4 3 2 2 2 2 2 1 1 3 3 2 2 2 2 2 2 2 2 3 3 3 3 3 2 2 3 3 3 3 3 3 3 3 3 6 6 7 9 8 7
3 4 2 3 3 4 3 2 1 1 1 1 1 3 3 2 2 2 2 2 2 3 3 3 3 3 3 3 2 3 3 4 3 3 3 3 3 3 3 4 5 6 6 7
2 2 3 3 3 3 4 3 2 2 2 1 0 1 2 2 2 2 3 3 3 3 2 3 3 3 3 3 3 3 4 4 4 3 3 3 4 4 3 3 3 3 4 5
3 2 2 3 2 3 3 3 3 2 2 2 1 0 1 2 3 3 3 3 2 2 2 3 3 4 3 3 3 3 3 2 2 2 2 3 3 3 3 3 3 3 2 2
3 3 3 3 2 2 3 3 2 1 1 1 1 1 1 2 2 2 2 2 2 3 3 3 3 4 3 3 2 2 2 4 3 2 2 2 2 2 2 3 3 3 3 3
2 4 4 4 4 3 3 3 1 1 1 1 1 1 0 0 0 1 2 2 3 3 3 3 3 3 2 2 2 2 2 3 3 2 2 2 2 2 3 2 3 3 3 3
2 2 2 2 2 3 3 3 2 2 1 1 1 1 1 0 1 2 2 1 1 2 3 3 3 2 2 2 2 2 2 2 2 3 2 2 2 2 2 2 3 4 2 2
3 4 4 3 3 2 2 3 2 2 1 1 0 0 0 1 1 1 1 0 1 2 4 3 3 2 2 3 2 2 2 2 2 2 2 3 2 2 2 2 3 3 2 2
5 5 4 4 4 3 3 3 2 2 2 1 0 0 0 1 1 1 1 2 3 3 3 3 2 2 3 3 2 2 2 3 2 2 2 2 2 3 3 2 2 2 2 2
5 6 6 4 4 3 3 3 2 2 2 2 1 1 2 2 2 2 2 2 4 3 2 2 2 2 3 2 2 2 2 2 2 2 2 2 2 2 2 2 2 2 2 2
4 5 6 5 4 4 3 3 2 2 2 2 1 1 2 2 2 2 2 2 3 2 1 1 2 2 3 2 1 1 2 2 2 2 2 2 2 2 2 1 2 2 2 2
3 4 5 5 4 4 4 3 3 2 2 3 2 2 2 2 2 2 2 3 2 1 1 2 2 2 2 1 1 1 1 1 2 2 2 2 1 1 1 1 1 1 1 1
3 4 4 4 4 4 4 5 4 3 3 3 2 2 2 1 1 2 2 2 1 1 1 2 2 2 1 1 1 1 1 1 1 2 1 1 1 1 1 1 1 1 0 1
3 3 4 3 3 3 3 4 4 4 3 2 2 2 1 1 1 1 1 1 1 1 1 1 2 2 1 1 0 1 1 1 1 0 0 0 1 1 0 1 1 1 1 1
3 2 2 2 2 2 2 2 2 3 2 2 2 2 2 1 1 1 0 1 1 1 1 1 1 1 1 1 0 1 1 1 1 1 0 0 0 0 1 1 1 1 1 1
3 3 3 3 3 3 2 2 2 2 1 1 2 2 2 1 1 1 1 1 1 1 1 1 1 1 1 1 1 1 1 1 1 1 1 1 1 0 0 1 1 1 1 1
Wind_Direction
232 248 276 300 308 314 230 195 195 225 212 227 219 194 174 157 146 141 143 146 151 155 161 159 156 155 159 170 172 167 160 166 182 183 182 181 183 193 197 199 210 210 218 232
293 279 305 320 313 306 274 231 190 195 242 236 202 148 134 144 150 153 161 163 162 160 162 166 167 167 161 158 176 164 163 179 182 173 170 179 192 192 197 214 218 214 224 230
270 294 338 295 285 278 42 18 143 203 239 193 104 144 159 163 164 166 170 168 169 169 174 175 177 172 174 178 171 159 164 175 179 179 181 203 204 189 209 231 231 232 234 224
239 8 228 239 318 73 85 34 30 79 71 117 151 157 152 141 143 152 164 166 170 169 166 167 167 168 168 158 152 161 172 182 185 186 197 205 200 207 230 240 235 232 234 228
155 191 260 296 334 344 119 19 14 66 62 39 51 75 44 72 135 175 180 168 170 166 158 151 156 168 154 154 156 162 180 190 190 188 193 200 212 222 227 228 244 236 228 223
153 167 228 264 301 300 121 293 350 76 91 46 30 54 281 279 163 150 147 148 148 142 130 137 159 156 144 158 161 186 202 204 196 189 193 202 214 222 226 222 238 242 239 232
180 209 259 295 317 7 133 238 262 124 133 119 135 215 249 236 179 159 150 146 142 141 148 163 164 146 155 173 197 213 210 202 199 200 200 205 212 218 221 227 243 253 251 249
146 178 263 311 16 96 229 249 220 155 160 149 174 197 261 146 148 137 127 130 138 143 157 175 168 158 172 200 212 204 198 202 209 213 220 216 208 222 221 215 235 251 251 262
172 202 249 283 190 226 178 177 189 123 201 143 133 133 120 130 150 145 144 146 153 156 163 186 182 169 188 218 208 188 190 216 223 222 228 219 208 215 227 221 223 238 238 248
65 308 309 333 348 339 110 144 191 148 183 152 149 146 136 145 151 156 155 164 174 166 172 199 204 191 198 214 206 187 204 229 234 231 238 233 221 214 216 220 226 234 235 244
339 301 348 346 340 318 339 29 44 42 191 168 144 141 147 157 169 182 183 181 183 188 193 205 198 198 208 208 199 202 214 226 240 239 235 234 231 227 225 227 218 223 234 229
262 271 253 280 301 344 11 5 9 31 42 129 143 156 156 171 193 187 194 196 200 210 205 200 193 203 216 214 197 195 213 228 237 240 240 234 236 257 253 243 241 236 237 232
252 281 286 303 336 354 1 353 18 50 101 124 160 162 156 174 190 190 197 205 207 216 208 200 203 214 223 218 213 211 224 235 241 238 233 234 233 231 260 279 274 263 253 237
320 4 1 341 325 334 345 357 23 34 47 76 185 169 160 169 192 206 216 218 212 214 214 211 216 232 237 225 222 230 234 240 242 237 235 235 234 235 233 238 269 290 279 253
321 317 279 297 323 349 4 7 19 18 18 1 320 229 197 201 214 227 231 223 208 214 227 225 229 249 246 226 224 232 231 238 242 243 241 242 238 234 233 233 236 251 271 278
314 335 333 337 333 346 7 6 359 345 0 344 313 277 204 204 224 242 245 221 205 222 228 231 242 250 233 221 224 232 236 242 246 249 257 263 251 235 230 228 229 231 234 227
343 331 330 329 323 322 330 333 343 344 349 1 275 276 58 44 307 284 275 259 233 228 230 226 242 260 244 223 215 229 232 238 245 256 253 251 250 243 235 228 228 232 235 215
280 292 293 296 315 332 341 351 356 358 320 311 351 54 52 260 246 255 265 284 291 281 264 244 237 248 259 251 227 229 227 236 248 250 251 252 256 253 241 232 230 229 236 214
333 333 337 342 342 339 329 322 309 306 310 312 343 273 214 234 263 270 264 184 238 268 276 268 246 234 241 248 236 226 229 241 258 258 249 249 253 257 247 232 229 231 221 202
349 342 341 345 355 351 334 329 319 314 309 315 328 124 37 298 286 273 239 243 244 247 255 252 240 245 248 243 234 246 245 241 239 245 245 247 253 259 257 244 229 220 206 202
358 354 353 347 334 330 328 328 321 302 298 297 272 235 239 248 241 226 217 265 277 272 267 249 246 259 260 258 248 243 236 238 244 241 242 240 247 258 261 255 241 228 214 210
346 342 340 341 343 333 324 319 320 314 305 297 285 272 262 258 256 263 254 242 252 276 285 258 255 261 278 280 258 247 241 241 250 252 249 247 240 244 257 255 251 245 225 214
321 324 326 327 328 324 332 332 322 312 306 297 277 260 256 248 229 217 267 273 257 271 290 271 274 278 288 292 261 256 265 258 258 251 239 237 229 220 224 229 234 239 227 212
314 319 314 315 333 345 338 329 326 313 302 288 270 257 245 249 292 273 247 252 266 277 282 277 280 290 304 298 260 265 272 269 267 262 248 227 222 217 223 214 224 243 193 147
307 312 319 336 346 331 317 323 326 323 327 320 314 309 285 228 235 263 282 282 276 287 290 272 278 290 313 345 326 303 294 292 279 264 213 182 199 183 167 153 165 162 147 137
317 312 301 299 298 300 302 311 310 308 320 332 330 321 314 313 317 314 304 289 292 315 322 315 324 326 339 347 350 4 38 34 10 351 45 151 163 141 131 118 126 142 138 140
336 336 334 333 329 325 320 320 313 304 302 319 321 312 304 311 322 322 321 292 302 333 341 353 1 355 349 7 16 27 30 24 28 34 48 48 40 65 112 123 118 115 127 124